2015-11-24 00:02:51 r, 16.67m,0000000019Hz,0000024142c,0000000.052s, 013.8C,00002195
2015-11-24 00:12:51 r, 16.49m,0000000023Hz,0000020679c,0000000.045s, 013.8C,00002195
2015-11-24 00:22:51 r, 16.33m,0000000026Hz,0000017799c,0000000.039s, 013.8C,00002195
2015-11-24 00:32:51 r, 16.62m,0000000020Hz,0000023234c,0000000.050s, 013.5C,00002195
2015-11-24 00:42:53 r, 16.02m,0000000035Hz,0000013346c,0000000.029s, 013.5C,00002195
2015-11-24 00:52:52 r, 15.91m,0000000038Hz,0000012095c,0000000.026s, 013.5C,00002195
2015-11-24 01:02:51 r, 16.20m,0000000029Hz,0000015684c,0000000.034s, 013.8C,00002195
2015-11-24 01:12:52 r, 16.29m,0000000027Hz,0000017253c,0000000.037s, 013.8C,00002195
2015-11-24 01:22:52 r, 16.27m,0000000028Hz,0000016782c,0000000.036s, 014.1C,00002195
2015-11-24 01:32:51 r, 16.26m,0000000028Hz,0000016694c,0000000.036s, 013.8C,00002195
2015-11-24 01:42:51 r, 16.30m,0000000027Hz,0000017343c,0000000.038s, 013.8C,00002195
2015-11-24 01:52:52 r, 16.24m,0000000029Hz,0000016368c,0000000.036s, 013.8C,00002195
2015-11-24 02:02:51 r, 16.79m,0000000017Hz,0000027242c,0000000.059s, 013.8C,00002195
2015-11-24 02:12:51 r, 17.11m,0000000013Hz,0000036578c,0000000.079s, 013.8C,00002195
2015-11-24 02:22:53 r, 17.09m,0000000013Hz,0000035671c,0000000.077s, 013.5C,00002195
2015-11-24 02:32:51 r, 17.16m,0000000013Hz,0000037988c,0000000.082s, 013.2C,00002195
2015-11-24 02:42:51 r, 17.28m,0000000011Hz,0000042528c,0000000.092s, 013.2C,00002195
2015-11-24 02:52:51 r, 17.38m,0000000010Hz,0000046786c,0000000.102s, 012.8C,00002195
2015-11-24 03:02:51 r, 16.86m,0000000016Hz,0000028833c,0000000.063s, 012.5C,00002195
2015-11-24 03:12:52 r, 16.74m,0000000018Hz,0000025826c,0000000.056s, 012.5C,00002195
2015-11-24 03:22:51 r, 16.71m,0000000018Hz,0000025124c,0000000.055s, 012.5C,00002195
2015-11-24 03:32:51 r, 16.43m,0000000024Hz,0000019560c,0000000.042s, 012.5C,00002195
2015-11-24 03:42:54 r, 16.46m,0000000023Hz,0000020051c,0000000.044s, 012.5C,00002195
2015-11-24 03:52:52 r, 16.44m,0000000024Hz,0000019610c,0000000.043s, 012.5C,00002195
2015-11-24 04:02:51 r, 16.53m,0000000022Hz,0000021306c,0000000.046s, 012.5C,00002195
2015-11-24 04:12:54 r, 16.19m,0000000030Hz,0000015511c,0000000.034s, 012.8C,00002195
2015-11-24 04:22:51 r, 16.00m,0000000036Hz,0000013104c,0000000.028s, 012.8C,00002195
2015-11-24 04:32:51 r, 16.05m,0000000034Hz,0000013723c,0000000.030s, 012.8C,00002195
2015-11-24 04:42:53 r, 15.67m,0000000047Hz,0000009676c,0000000.021s, 013.2C,00002195
2015-11-24 04:52:52 r, 15.75m,0000000044Hz,0000010429c,0000000.023s, 013.2C,00002195
2015-11-24 05:02:52 r, 15.83m,0000000041Hz,0000011180c,0000000.024s, 013.5C,00002195
2015-11-24 05:12:53 r, 15.77m,0000000044Hz,0000010637c,0000000.023s, 013.5C,00002195
2015-11-24 05:22:51 r, 16.03m,0000000034Hz,0000013495c,0000000.029s, 013.5C,00002195
2015-11-24 05:32:51 r, 15.98m,0000000036Hz,0000012831c,0000000.028s, 013.5C,00002195
2015-11-24 05:42:52 r, 16.18m,0000000030Hz,0000015390c,0000000.033s, 013.5C,00002195
2015-11-24 05:52:54 r, 16.27m,0000000027Hz,0000016878c,0000000.037s, 013.5C,00002195
2015-11-24 06:02:51 r, 16.36m,0000000026Hz,0000018221c,0000000.040s, 013.5C,00002195
2015-11-24 06:12:52 r, 16.09m,0000000033Hz,0000014184c,0000000.031s, 013.5C,00002195
2015-11-24 06:22:53 r, 15.63m,0000000050Hz,0000009324c,0000000.020s, 013.2C,00002195
2015-11-24 06:32:52 r, 15.53m,0000000054Hz,0000008497c,0000000.018s, 013.2C,00002195
2015-11-24 06:42:52 r, 15.62m,0000000050Hz,0000009234c,0000000.020s, 013.2C,00002195
2015-11-24 06:52:52 r, 15.80m,0000000043Hz,0000010933c,0000000.024s, 013.2C,00002195
2015-11-24 07:02:51 r, 15.04m,0000000085Hz,0000005427c,0000000.012s, 013.5C,00002195
2015-11-24 07:12:51 r, 13.83m,0000000263Hz,0000000000c,0000000.000s, 013.5C,00002195
2015-11-24 07:22:54 r, 12.04m,0000001366Hz,0000000000c,0000000.000s, 013.5C,00002195
2015-11-24 07:32:51 r, 10.04m,0000008597Hz,0000000000c,0000000.000s, 013.5C,00002195
2015-11-24 07:42:51 r, 08.58m,0000032842Hz,0000000000c,0000000.000s, 013.5C,00002195
2015-11-24 07:52:51 r, 07.54m,0000086149Hz,0000000000c,0000000.000s, 013.5C,00002195
2015-11-24 08:02:51 r, 06.68m,0000188730Hz,0000000000c,0000000.000s, 013.8C,00002195
2015-11-24 08:12:51 r, 06.07m,0000333819Hz,0000000000c,0000000.000s, 013.8C,00002195
2015-11-24 08:22:53 r, 00.00m,0000454839Hz,0000000000c,0000000.000s, 014.5C,00002195
2015-11-24 08:32:51 r, 00.00m,0000562782Hz,0000000000c,0000000.000s, 014.5C,00002195
2015-11-24 08:42:51 r, 00.00m,0000562753Hz,0000000000c,0000000.000s, 014.8C,00002195
2015-11-24 08:52:53 r, 00.00m,0000562815Hz,0000000000c,0000000.000s, 015.1C,00002195
2015-11-24 09:02:51 r, 00.00m,0000562725Hz,0000000000c,0000000.000s, 015.4C,00002195
2015-11-24 09:12:52 r, 00.00m,0000562891Hz,0000000000c,0000000.000s, 015.7C,00002195
2015-11-24 09:22:51 r, 00.00m,0000562844Hz,0000000000c,0000000.000s, 015.7C,00002195
2015-11-24 09:32:51 r, 00.00m,0000563006Hz,0000000000c,0000000.000s, 016.1C,00002195
2015-11-24 09:42:51 r, 00.00m,0000562930Hz,0000000000c,0000000.000s, 016.1C,00002195
2015-11-24 09:52:52 r, 00.00m,0000563141Hz,0000000000c,0000000.000s, 016.7C,00002195
2015-11-24 10:02:51 r, 00.00m,0000563076Hz,0000000000c,0000000.000s, 016.7C,00002195
2015-11-24 10:12:51 r, 00.00m,0000563163Hz,0000000000c,0000000.000s, 017.4C,00002195
2015-11-24 10:22:54 r, 00.00m,0000563209Hz,0000000000c,0000000.000s, 017.7C,00002195
2015-11-24 10:32:51 r, 00.00m,0000563413Hz,0000000000c,0000000.000s, 018.6C,00002195
2015-11-24 10:42:51 r, 00.00m,0000563390Hz,0000000000c,0000000.000s, 019.3C,00002195
2015-11-24 10:52:51 r, 00.00m,0000563462Hz,0000000000c,0000000.000s, 019.6C,00002195
2015-11-24 11:02:51 r, 00.00m,0000563388Hz,0000000000c,0000000.000s, 019.6C,00002195
2015-11-24 11:12:51 r, 00.00m,0000563372Hz,0000000000c,0000000.000s, 019.3C,00002195
2015-11-24 11:22:51 r, 00.00m,0000563395Hz,0000000000c,0000000.000s, 019.3C,00002195
2015-11-24 11:32:51 r, 00.00m,0000563358Hz,0000000000c,0000000.000s, 019.3C,00002195
2015-11-24 11:42:51 r, 00.00m,0000563372Hz,0000000000c,0000000.000s, 019.6C,00002195
2015-11-24 11:52:54 r, 00.00m,0000563506Hz,0000000000c,0000000.000s, 019.6C,00002195
2015-11-24 12:02:51 r, 00.00m,0000563562Hz,0000000000c,0000000.000s, 019.9C,00002195
2015-11-24 12:12:51 r, 00.00m,0000563477Hz,0000000000c,0000000.000s, 019.9C,00002195
2015-11-24 12:22:51 r, 00.00m,0000563528Hz,0000000000c,0000000.000s, 019.9C,00002195
2015-11-24 12:32:53 r, 00.00m,0000563478Hz,0000000000c,0000000.000s, 019.9C,00002195
2015-11-24 12:42:51 r, 00.00m,0000563528Hz,0000000000c,0000000.000s, 019.9C,00002195
2015-11-24 12:52:51 r, 00.00m,0000563528Hz,0000000000c,0000000.000s, 019.9C,00002195
2015-11-24 13:02:51 r, 00.00m,0000563527Hz,0000000000c,0000000.000s, 019.6C,00002195
2015-11-24 13:12:51 r, 00.00m,0000563467Hz,0000000000c,0000000.000s, 019.6C,00002195
2015-11-24 13:22:52 r, 00.00m,0000563349Hz,0000000000c,0000000.000s, 019.0C,00002195
2015-11-24 13:32:54 r, 00.00m,0000563433Hz,0000000000c,0000000.000s, 019.0C,00002195
2015-11-24 13:42:51 r, 00.00m,0000563341Hz,0000000000c,0000000.000s, 018.6C,00002195
2015-11-24 13:52:52 r, 00.00m,0000563281Hz,0000000000c,0000000.000s, 018.3C,00002195
2015-11-24 14:02:54 r, 00.00m,0000563228Hz,0000000000c,0000000.000s, 018.3C,00002195
2015-11-24 14:12:52 r, 00.00m,0000563239Hz,0000000000c,0000000.000s, 018.0C,00002195
2015-11-24 14:22:51 r, 00.00m,0000563167Hz,0000000000c,0000000.000s, 018.0C,00002195
2015-11-24 14:32:51 r, 00.00m,0000563169Hz,0000000000c,0000000.000s, 018.0C,00002195
2015-11-24 14:42:53 r, 00.00m,0000563154Hz,0000000000c,0000000.000s, 018.0C,00002195
2015-11-24 14:52:52 r, 00.00m,0000563186Hz,0000000000c,0000000.000s, 017.7C,00002195
2015-11-24 15:02:51 r, 00.00m,0000563178Hz,0000000000c,0000000.000s, 017.7C,00002195
2015-11-24 15:12:52 r, 00.00m,0000563180Hz,0000000000c,0000000.000s, 017.4C,00002195
2015-11-24 15:22:52 r, 00.00m,0000563242Hz,0000000000c,0000000.000s, 017.7C,00002195
2015-11-24 15:32:52 r, 00.00m,0000563099Hz,0000000000c,0000000.000s, 017.4C,00002195
2015-11-24 15:42:51 r, 00.00m,0000563127Hz,0000000000c,0000000.000s, 017.4C,00002195
2015-11-24 15:52:53 r, 00.00m,0000563056Hz,0000000000c,0000000.000s, 017.0C,00002195
2015-11-24 16:02:52 r, 00.00m,0000416168Hz,0000000000c,0000000.000s, 016.7C,00002195
2015-11-24 16:12:53 r, 06.15m,0000308326Hz,0000000000c,0000000.000s, 016.7C,00002195
2015-11-24 16:22:52 r, 06.73m,0000180928Hz,0000000000c,0000000.000s, 016.7C,00002195
2015-11-24 16:32:52 r, 07.32m,0000104984Hz,0000000000c,0000000.000s, 016.7C,00002195
2015-11-24 16:42:53 r, 08.17m,0000048097Hz,0000000000c,0000000.000s, 016.7C,00002195
2015-11-24 16:52:51 r, 09.48m,0000014452Hz,0000000000c,0000000.000s, 016.4C,00002195
2015-11-24 17:02:52 r, 11.27m,0000002770Hz,0000000000c,0000000.000s, 016.7C,00002195
2015-11-24 17:12:51 r, 13.10m,0000000515Hz,0000000000c,0000000.000s, 016.7C,00002195
2015-11-24 17:22:52 r, 14.56m,0000000133Hz,0000000000c,0000000.000s, 016.4C,00002195
2015-11-24 17:32:53 r, 15.45m,0000000059Hz,0000007853c,0000000.017s, 016.4C,00002195
2015-11-24 17:42:52 r, 15.60m,0000000049Hz,0000009144c,0000000.020s, 016.4C,00002195
2015-11-24 17:52:52 r, 15.42m,0000000059Hz,0000007710c,0000000.017s, 016.7C,00002195
2015-11-24 18:02:52 r, 15.72m,0000000045Hz,0000010151c,0000000.022s, 016.7C,00002195
2015-11-24 18:12:52 r, 16.01m,0000000035Hz,0000013203c,0000000.029s, 016.7C,00002195
2015-11-24 18:22:52 r, 16.04m,0000000033Hz,0000013653c,0000000.030s, 016.7C,00002195
2015-11-24 18:32:52 r, 16.00m,0000000035Hz,0000013114c,0000000.028s, 017.0C,00002195
2015-11-24 18:42:52 r, 15.95m,0000000037Hz,0000012534c,0000000.027s, 016.7C,00002195
2015-11-24 18:52:54 r, 15.74m,0000000045Hz,0000010248c,0000000.022s, 017.0C,00002195
2015-11-24 19:02:52 r, 15.51m,0000000055Hz,0000008365c,0000000.018s, 017.0C,00002195
2015-11-24 19:12:52 r, 15.57m,0000000053Hz,0000008770c,0000000.019s, 017.0C,00002195
2015-11-24 19:22:54 r, 15.64m,0000000050Hz,0000009362c,0000000.020s, 017.0C,00002195
2015-11-24 19:32:52 r, 15.66m,0000000048Hz,0000009549c,0000000.021s, 017.0C,00002195
2015-11-24 19:42:52 r, 15.67m,0000000048Hz,0000009629c,0000000.021s, 017.0C,00002195
2015-11-24 19:52:52 r, 15.30m,0000000067Hz,0000006871c,0000000.015s, 017.0C,00002195
2015-11-24 20:02:52 r, 15.30m,0000000067Hz,0000006890c,0000000.015s, 017.0C,00002195
2015-11-24 20:12:52 r, 15.27m,0000000069Hz,0000006706c,0000000.015s, 017.0C,00002195
2015-11-24 20:22:52 r, 15.10m,0000000081Hz,0000005722c,0000000.012s, 017.4C,00002195
2015-11-24 20:32:52 r, 14.95m,0000000092Hz,0000005011c,0000000.011s, 017.4C,00002195
2015-11-24 20:42:52 r, 15.00m,0000000090Hz,0000005198c,0000000.011s, 017.4C,00002195
2015-11-24 20:52:52 r, 15.05m,0000000085Hz,0000005462c,0000000.012s, 017.4C,00002195
2015-11-24 21:02:52 r, 15.11m,0000000080Hz,0000005758c,0000000.012s, 017.4C,00002195
2015-11-24 21:12:52 r, 15.01m,0000000086Hz,0000005259c,0000000.011s, 017.4C,00002195
2015-11-24 21:22:54 r, 15.19m,0000000075Hz,0000006205c,0000000.013s, 017.4C,00002195
2015-11-24 21:32:52 r, 15.23m,0000000072Hz,0000006420c,0000000.014s, 017.7C,00002195
2015-11-24 21:42:52 r, 14.95m,0000000093Hz,0000005002c,0000000.011s, 017.7C,00002195
2015-11-24 21:52:52 r, 14.96m,0000000091Hz,0000005053c,0000000.011s, 017.7C,00002195
2015-11-24 22:02:52 r, 14.64m,0000000123Hz,0000003741c,0000000.008s, 017.7C,00002195
2015-11-24 22:12:54 r, 14.37m,0000000159Hz,0000000000c,0000000.000s, 018.0C,00002195
2015-11-24 22:22:52 r, 14.37m,0000000159Hz,0000000000c,0000000.000s, 018.0C,00002195
2015-11-24 22:32:52 r, 14.27m,0000000174Hz,0000000000c,0000000.000s, 018.0C,00002195
2015-11-24 22:42:52 r, 14.24m,0000000178Hz,0000000000c,0000000.000s, 018.0C,00002195
2015-11-24 22:52:53 r, 14.27m,0000000174Hz,0000000000c,0000000.000s, 018.3C,00002195
2015-11-24 23:02:52 r, 14.28m,0000000173Hz,0000000000c,0000000.000s, 018.3C,00002195
2015-11-24 23:12:52 r, 14.30m,0000000169Hz,0000000000c,0000000.000s, 018.3C,00002195
2015-11-24 23:22:52 r, 14.27m,0000000174Hz,0000000000c,0000000.000s, 018.0C,00002195
2015-11-24 23:32:52 r, 14.30m,0000000169Hz,0000000000c,0000000.000s, 018.3C,00002195
2015-11-24 23:42:52 r, 14.33m,0000000165Hz,0000000000c,0000000.000s, 018.3C,00002195
2015-11-24 23:52:52 r, 14.30m,0000000169Hz,0000000000c,0000000.000s, 018.3C,00002195
